Theta_e
314 314 313 311 311 311 312 313 314 315 317 317 318 318 318 318 311 300 297 307 313 321 317 301 297 296 295 294 293 295 287 283 284 283 284 289 289 292 293 293 293 295 295 297 299
314 314 313 312 311 311 311 312 313 315 316 317 317 318 318 317 297 296 307 318 318 319 300 295 293 294 290 290 290 288 285 285 286 285 286 288 289 290 291 290 292 294 296 297 298
314 314 313 313 311 310 311 311 312 314 315 316 317 318 318 310 291 292 313 317 317 312 301 297 293 292 289 289 287 286 283 286 287 288 289 289 289 291 289 289 291 291 293 295 296
314 313 313 313 311 310 310 311 312 313 315 316 317 318 319 296 283 297 314 314 314 302 299 293 291 289 286 285 287 285 286 287 290 290 289 288 290 288 289 289 293 294 294 294 294
315 314 313 312 311 310 310 311 312 313 314 315 317 319 303 289 290 302 311 307 301 299 295 291 288 287 285 285 286 285 286 288 289 289 288 290 288 288 288 290 293 293 293 292 293
316 315 313 312 311 310 310 310 311 313 314 315 316 317 296 284 301 302 301 302 300 297 294 292 289 289 287 285 284 286 287 287 289 289 289 287 287 289 288 291 291 291 290 291 292
316 315 313 313 311 310 310 310 311 312 314 315 316 305 294 292 300 301 301 299 299 297 294 294 292 291 289 286 288 287 285 286 287 288 288 289 286 285 288 290 289 288 289 290 291
317 315 313 312 312 310 310 310 311 313 314 315 317 297 290 301 301 301 300 298 300 300 296 295 294 290 289 288 286 284 282 279 285 288 288 287 280 286 288 289 287 287 287 289 290
316 314 313 312 312 310 310 310 314 314 314 315 299 295 290 305 298 300 300 297 298 298 297 297 293 288 287 282 280 281 277 279 282 287 288 286 282 286 288 287 286 286 286 287 289
316 314 314 312 312 311 311 312 312 309 306 304 301 290 297 293 298 298 298 299 295 294 293 291 287 283 282 278 277 278 278 279 279 284 286 284 283 285 287 286 285 285 285 286 288
316 315 314 312 311 309 306 297 292 293 297 293 293 293 296 299 299 296 298 296 294 292 284 286 282 278 279 281 281 280 279 278 281 285 284 282 282 283 285 286 285 285 285 286 287
316 315 314 312 309 307 304 294 295 295 290 297 297 296 298 299 291 294 299 291 289 284 286 283 279 283 286 284 282 281 280 279 282 285 284 281 282 283 285 285 285 285 284 285 286
316 315 313 310 307 301 298 297 304 301 289 293 296 295 295 296 291 291 295 292 288 285 283 281 283 287 285 283 283 281 280 279 279 282 283 281 279 281 284 286 286 285 285 285 285
316 314 313 308 296 298 296 302 304 300 284 289 290 293 296 294 289 296 295 292 288 283 283 284 286 285 284 283 282 281 283 283 282 278 274 280 274 278 281 283 284 283 283 284 284
316 314 312 305 297 294 300 303 302 300 284 287 288 297 297 290 290 291 296 293 286 285 283 282 284 283 282 283 284 281 284 283 282 279 276 278 273 276 281 280 282 283 283 283 284
315 313 309 301 300 299 302 302 299 288 283 280 288 289 289 290 290 292 292 293 291 286 285 285 287 286 284 285 285 286 283 282 280 278 272 276 274 275 276 280 282 282 283 283 283
315 312 302 301 293 302 302 300 286 284 284 280 282 287 287 285 287 289 288 286 284 280 279 283 284 286 286 283 286 283 279 273 271 271 272 277 275 279 281 282 283 281 283 283 283
311 307 301 301 302 302 299 290 281 281 278 284 286 287 283 285 284 286 285 283 286 283 280 279 278 284 287 283 282 282 279 275 268 269 272 278 275 281 282 284 283 283 283 283 282
308 299 297 300 301 299 293 282 285 285 285 284 285 281 281 285 284 283 283 284 286 286 282 279 278 285 287 287 285 282 280 281 274 265 271 274 278 281 282 281 281 281 282 282 282
297 296 294 300 301 299 286 286 286 287 287 286 282 281 278 281 281 281 282 285 285 288 286 283 278 282 285 287 287 284 284 277 275 267 266 272 275 278 279 280 281 280 281 281 282
296 291 296 300 300 290 282 284 287 287 289 285 282 282 281 281 281 279 282 284 286 285 286 284 282 280 284 282 282 282 280 281 279 275 271 269 275 281 282 283 281 281 282 282 282
294 286 297 299 285 285 283 285 288 284 288 287 285 284 284 283 281 281 281 284 288 287 283 285 281 277 279 282 283 283 281 281 274 273 274 275 275 283 282 284 284 282 282 282 282
286 285 295 294 280 281 283 280 283 283 285 285 283 286 285 283 282 282 283 287 288 286 284 285 279 273 275 278 281 280 282 282 279 279 275 273 276 283 282 282 283 282 282 283 282
286 280 284 287 286 283 282 282 282 284 284 286 284 285 284 282 283 281 282 286 288 288 290 288 280 279 276 277 278 278 280 281 280 274 276 277 278 281 281 281 281 282 282 282 282
287 284 285 277 280 282 284 284 283 280 284 285 282 283 284 280 281 281 282 284 286 288 286 284 277 279 279 279 280 280 279 280 279 281 277 278 280 282 283 283 283 284 282 282 281
285 283 284 283 284 282 285 282 284 283 282 281 282 284 284 282 283 280 283 284 283 284 283 282 276 276 273 277 279 277 279 281 281 282 281 280 279 285 287 285 284 283 282 282 282
294 292 287 285 283 281 282 284 284 285 284 286 285 283 282 285 286 286 286 287 285 283 280 278 274 273 269 272 273 270 275 279 280 281 282 278 284 284 282 284 284 284 283 283 283
Wind_Speed
8 10 11 12 13 13 14 14 14 14 14 14 15 15 15 15 7 6 7 5 10 18 13 4 3 5 6 6 6 3 6 3 6 6 4 1 3 2 1 5 4 3 3 3 10
7 9 11 12 12 13 14 14 14 14 14 14 14 14 15 11 3 8 1 14 14 13 5 3 3 5 6 5 5 7 5 5 3 5 5 3 3 4 4 4 4 2 2 8 7
6 7 10 11 12 13 14 14 14 14 14 14 14 14 14 4 2 3 11 17 14 6 1 2 5 5 7 5 7 4 4 5 1 3 4 5 3 2 7 3 1 1 6 10 9
6 6 8 11 12 13 14 15 15 14 15 14 14 13 11 1 2 3 16 17 11 4 3 3 6 6 6 6 3 8 3 1 4 2 4 4 5 4 3 2 4 4 4 6 9
6 6 7 10 11 13 14 15 15 15 14 14 13 13 2 5 1 5 16 11 2 3 5 2 4 6 8 7 4 7 3 4 4 6 5 5 3 5 3 2 3 6 8 7 9
6 6 7 9 11 13 15 15 15 16 15 13 12 11 1 1 4 7 9 6 5 5 4 6 5 5 9 5 5 5 7 5 3 3 4 7 3 2 3 2 4 5 6 7 10
6 6 7 9 10 13 15 17 16 15 15 12 9 3 5 3 2 7 7 4 5 3 5 3 5 6 7 6 3 6 8 4 3 0 3 6 3 3 2 3 4 6 7 8 11
7 5 6 9 11 12 16 18 18 16 12 9 7 1 2 2 1 5 7 3 6 5 6 4 9 11 6 6 6 6 5 4 2 2 1 4 4 3 1 3 4 7 8 11 11
8 6 6 7 11 13 16 20 19 12 7 6 1 0 1 3 4 4 4 2 5 3 6 4 7 6 4 6 5 5 4 3 2 1 3 4 3 4 2 4 4 6 8 9 12
9 7 6 6 10 14 17 18 10 6 2 0 2 2 4 1 3 4 3 3 4 2 4 8 7 5 4 4 6 7 5 2 4 4 3 3 4 4 2 4 3 5 6 9 12
10 8 6 6 6 14 10 5 5 3 7 1 1 3 1 3 1 5 3 2 1 8 3 4 6 4 6 3 3 8 6 4 1 2 4 6 5 8 5 3 4 6 8 9 10
10 8 5 6 5 11 4 3 1 2 5 1 1 1 2 1 2 4 4 2 3 3 0 6 2 3 6 4 6 5 5 2 1 1 1 1 7 5 6 2 2 4 6 8 11
11 10 6 4 6 3 2 2 2 2 3 2 1 1 1 1 1 1 4 2 4 4 2 5 4 4 4 3 5 3 5 5 2 1 2 5 5 3 3 4 3 4 3 5 8
13 10 7 3 2 1 1 2 1 2 5 3 0 1 2 2 3 1 3 3 5 5 4 5 2 4 4 3 2 4 2 5 5 4 3 3 6 4 4 5 3 3 5 5 7
13 12 9 4 3 2 2 3 1 2 4 3 1 1 0 2 3 4 2 3 6 4 4 4 5 4 3 3 0 4 3 4 3 4 4 1 3 4 4 6 6 2 2 4 6
17 16 12 1 2 2 4 3 3 4 9 1 1 2 3 3 2 1 2 7 4 5 6 3 1 2 4 3 1 9 6 6 4 3 2 1 5 6 6 8 6 3 1 3 5
10 20 10 3 3 3 3 2 4 6 3 3 3 4 2 3 2 1 3 2 5 6 1 2 1 1 4 7 6 2 5 2 6 3 5 3 2 8 5 5 7 8 5 2 3
26 20 8 2 1 1 1 5 6 4 6 2 4 4 5 5 1 2 5 3 3 1 3 6 3 7 3 2 6 5 2 6 8 4 2 3 7 4 3 6 7 6 6 4 2
20 3 4 1 2 0 5 4 9 8 7 10 3 4 3 2 4 3 5 5 8 11 7 5 0 2 2 1 1 5 5 3 8 2 3 5 5 1 4 5 5 7 5 5 2
3 2 2 5 2 1 4 7 4 3 8 4 7 3 7 6 5 5 8 5 6 7 5 3 4 1 1 1 2 2 3 3 2 2 4 5 6 6 12 13 10 9 8 7 5
3 3 2 5 3 2 6 6 6 5 5 7 6 5 4 7 7 6 4 2 3 5 5 6 3 1 2 8 8 4 3 1 2 4 5 1 8 3 15 18 18 13 11 9 8
3 3 6 7 3 4 4 7 4 5 1 3 3 2 7 7 5 4 7 3 6 10 10 6 5 5 5 1 2 2 6 6 5 6 3 2 8 2 5 15 14 13 12 9 6
3 3 3 2 6 6 4 3 2 3 5 6 7 6 3 7 4 6 5 1 4 6 8 8 2 4 3 2 2 6 6 4 4 3 8 7 6 3 4 8 10 15 12 10 8
4 5 2 3 1 5 8 7 6 2 3 2 3 4 6 4 3 6 4 0 2 1 3 3 3 6 8 5 6 6 6 8 5 4 5 9 3 5 6 11 10 12 14 12 11
4 5 5 9 12 6 11 12 15 9 3 4 2 7 8 6 4 6 4 2 3 3 1 3 5 4 3 2 4 5 5 14 17 17 10 6 14 11 16 18 22 16 13 13 12
4 4 3 3 5 19 12 15 22 11 13 7 9 16 10 7 10 10 9 5 5 3 6 2 3 2 3 3 3 5 10 11 18 19 17 13 13 6 12 9 11 15 16 17 15
1 1 4 8 10 16 19 22 21 14 10 8 19 7 13 18 2 1 5 8 5 10 9 7 6 4 6 3 3 8 19 22 10 11 15 17 22 8 8 20 22 21 22 21 18
Wind_Direction
356 352 347 348 349 351 351 353 353 351 349 348 346 346 343 339 19 36 46 317 320 319 328 275 35 29 40 64 39 102 68 136 179 160 149 94 108 25 40 69 33 33 94 311 318
346 348 343 344 345 345 346 347 349 346 344 344 342 342 340 337 73 55 316 336 329 330 4 26 74 53 55 36 25 63 86 178 175 159 147 126 99 125 82 19 36 28 357 347 338
339 344 340 338 340 342 342 340 345 340 340 339 338 336 334 331 99 324 339 338 332 337 220 74 76 72 63 40 2 22 124 169 71 117 118 118 78 65 120 46 297 3 326 343 350
326 337 336 333 337 336 339 335 337 338 334 335 333 332 330 334 181 279 336 335 342 103 134 67 36 60 71 74 20 91 64 101 145 93 81 99 114 74 46 115 99 66 357 345 340
305 319 327 330 331 330 332 332 331 331 330 330 331 332 354 45 357 317 332 334 24 57 59 99 82 118 107 107 86 79 130 62 84 89 75 99 82 136 100 102 65 19 7 341 353
281 298 317 322 327 327 327 326 326 325 325 324 330 329 37 120 311 328 332 343 33 61 31 28 141 118 89 70 79 127 103 104 75 124 113 115 149 54 205 129 31 12 338 355 3
262 281 307 314 322 325 322 320 319 318 315 314 327 350 60 158 331 329 1 354 344 88 90 32 130 70 136 92 165 123 82 77 37 70 132 134 141 143 148 112 19 352 349 357 3
243 269 292 312 320 325 319 315 310 308 306 304 321 346 96 258 281 16 342 12 6 56 95 121 89 95 75 123 44 75 67 122 245 143 245 134 246 176 348 158 5 350 354 360 351
242 258 279 310 320 320 318 311 303 295 299 306 84 96 115 332 49 320 31 23 314 56 54 78 67 87 84 98 59 10 167 155 200 165 152 162 234 173 116 102 20 359 357 351 346
229 246 266 300 323 319 319 308 291 315 352 256 82 26 359 271 316 335 342 14 79 85 36 46 59 81 48 85 200 186 168 164 183 200 167 194 233 190 154 103 35 357 349 360 353
218 227 249 289 330 324 338 3 21 315 45 60 49 122 142 284 288 7 357 352 83 52 88 10 85 176 186 149 113 124 120 134 165 194 178 219 235 204 180 94 32 7 5 357 343
202 208 232 283 331 329 309 52 81 289 307 183 131 349 110 196 111 11 345 112 72 116 299 34 141 149 107 90 100 91 111 110 13 10 227 308 264 193 175 150 85 28 5 348 336
191 192 195 261 333 49 8 78 87 73 259 200 194 181 103 101 143 35 348 100 92 103 33 141 157 149 111 119 104 48 143 173 149 97 43 343 286 151 189 124 118 45 13 342 326
184 181 173 220 45 288 109 124 114 133 46 245 193 7 39 129 56 23 356 109 44 139 114 86 167 139 117 136 121 164 165 122 121 106 220 36 276 225 193 192 179 37 10 349 342
176 168 168 184 151 148 108 137 279 267 280 21 88 288 84 126 126 16 19 18 118 114 123 184 148 138 126 111 8 161 128 103 87 91 52 90 78 268 132 222 206 128 11 3 342
168 159 144 143 303 194 134 161 40 43 244 209 46 133 89 21 37 122 52 52 131 91 40 87 282 56 126 83 70 144 81 55 58 87 31 129 133 266 190 197 147 154 135 25 345
255 157 132 123 256 140 135 57 66 231 346 245 173 159 116 140 99 63 128 111 126 91 180 19 2 47 127 84 3 82 108 346 349 14 220 151 71 253 190 175 152 160 157 81 355
319 139 130 120 88 55 60 60 192 234 212 144 121 113 177 156 317 126 129 164 91 108 123 153 259 178 181 201 176 183 189 165 206 205 230 129 232 263 149 122 119 136 148 126 23
123 70 113 80 106 99 99 200 206 198 151 151 69 129 202 187 156 126 196 206 171 178 174 150 166 345 33 110 151 185 199 134 104 28 49 214 267 260 130 150 155 162 163 164 185
75 83 138 113 22 37 89 263 229 194 129 147 188 149 170 186 153 180 181 201 195 164 120 218 103 317 228 58 20 187 153 89 4 171 253 270 272 228 196 195 186 182 187 188 195
84 129 83 116 87 136 190 222 250 225 149 161 206 146 185 179 174 185 195 260 135 143 155 163 168 140 138 204 180 154 193 182 143 166 176 223 257 207 193 186 183 185 189 186 190
147 195 154 166 146 194 190 175 244 185 195 141 159 161 174 163 166 216 210 227 149 151 174 208 110 164 204 280 229 195 196 178 143 214 237 155 270 330 211 180 173 178 184 190 187
147 115 3 259 178 205 139 261 238 171 182 185 184 189 144 173 201 195 180 33 160 174 168 187 215 87 1 357 334 221 195 181 129 104 205 149 255 28 104 147 174 170 176 189 187
141 152 159 230 274 203 166 179 205 263 197 182 151 143 132 173 272 167 148 58 84 137 339 77 173 181 194 171 136 198 196 182 166 165 167 220 213 218 186 182 179 185 177 182 190
181 199 189 185 222 222 176 173 186 197 184 214 227 220 161 162 161 173 129 123 36 166 143 177 220 178 235 159 173 196 179 192 206 217 203 196 217 207 194 193 195 182 174 177 189
174 168 182 233 157 196 201 205 193 173 158 209 224 195 183 184 199 181 137 172 181 159 177 192 221 99 297 327 250 251 236 201 216 230 247 243 256 182 200 161 168 182 181 190 190
180 106 176 188 175 184 210 208 207 155 216 199 205 125 192 220 86 33 94 136 153 170 176 154 141 115 263 5 333 288 223 210 201 209 208 217 230 167 176 182 189 186 188 192 190